Regional Weather Roundup
Issued by NWS Cleveland, OH

Home | Current Version | Previous Version | Graphics & Text | Print | Product List | Glossary On
Versions: 1 2 3 4 5 6 7 8 9 10 11 12 13 14 15 16 17 18 19 20 21 22 23 24 25 26 27 28 29 30 31 32 33 34 35 36 37 38 39 40 41 42 43 44 45 46 47 48 49 50
000
ASUS41 KCLE 300200
RWRCLE
OHIO REGIONAL WEATHER ROUNDUP
NATIONAL WEATHER SERVICE WILMINGTON, OH
1000 PM EDT MON MAY 29 2017

NOTE: "FAIR" INDICATES FEW OR NO CLOUDS BELOW 12,000 FEET WITH NO
SIGNIFICANT WEATHER AND/OR OBSTRUCTIONS TO VISIBILITY.

OHZ001>008-015>018-024>027-034-035-043-044-300300-
   NORTHWEST OHIO

CITY           SKY/WX    TMP DP  RH WIND       PRES   REMARKS
DEFIANCE       FAIR      64  54  69 NW5       29.87R
FINDLAY        FAIR      64  53  67 S7        29.87R
TOLEDO EXPRESS FAIR      67  55  65 W9        29.86R
TOLEDO EXEC    FAIR      67  54  63 SW7       29.86R
LIMA           FAIR      64  55  72 S12       29.89S
$$

OHZ009>014-019>023-028>033-038-089-300300-
   NORTHEAST OHIO

CITY           SKY/WX    TMP DP  RH WIND       PRES   REMARKS
CLE-HOPKINS    MOCLDY    72  56  57 S6        29.90R
CLE-LAKEFRONT  FAIR      68  53  58 SE5       29.88R
CUY CO. ARPT   MOCLDY    68  52  56 S7        29.90S
LORAIN-ELYRIA  MOCLDY    68  52  56 SW5       29.88S
ASHTABULA      FAIR      62  61  96 CALM      29.93R
AKRON-CANTON   FAIR      66  54  65 S8        29.93R
WOOSTER        NOT AVBL
MANSFIELD      FAIR      66  55  67 S6        29.92R
YOUNGSTOWN     FAIR      63  54  72 S6        29.94R
$$

OHZ042-051>053-060>062-070>072-077>081-300300-
  SOUTHWEST OHIO

CITY           SKY/WX    TMP DP  RH WIND       PRES   REMARKS
CINC-COVINGTON MOCLDY    67  56  67 S6        29.94R
CINC-LUNKEN    FAIR      66  59  78 CALM      29.93R
HAMILTON       FAIR      68  58  70 SW3       29.92S
DAYTON         MOCLDY    71  54  54 S9        29.92R
WRIGHT-PAT AFB PTCLDY    68  54  60 SW6       29.91R
DAYTON GENERAL FAIR      68  59  73 S5        29.92R
WILMINGTON     FAIR      68  56  65 S7        29.93S
$$

OHZ036-037-039>041-045>050-054>059-063>069-073>076-082>088-300300-
  CENTRAL AND SOUTHEAST OHIO

CITY           SKY/WX    TMP DP  RH WIND       PRES   REMARKS
COLUMBUS       FAIR      74  53  48 S6        29.90S
OSU AIRPORT    FAIR      71  54  54 SW6       29.91S
BOLTON FIELD   NOT AVBL
RICKENBACK AFB NOT AVBL
NEWARK         FAIR      65  56  72 CALM      29.92R
MARION         FAIR      70  53  54 SW7       29.91R
LANCASTER      MOCLDY    71  57  61 S5        29.93S
ZANESVILLE     FAIR      71  55  56 S6        29.93S
NEW PHILLY     FAIR      64  62  93 SE5       29.95R
$$



USA.gov is the U.S. government's official web portal to all federal, state and local government web resources and services.